GFSSW_sfc_wetblb_276.txt.gz
Wetbulb
58.10 58.08 57.75 57.77 57.68 57.26 56.96 57.05 57.00 57.16 57.66 58.18 58.57 58.67 58.04 57.28 57.70 59.03 55.13 59.56 59.47 62.10 63.28 59.52 58.06 57.53 56.83 55.22 56.57 55.74 49.73 47.96 48.94 48.77 49.98 53.95 52.60 55.42 57.09 55.91 56.89 61.85 65.84 70.55 73.79
57.74 57.68 57.68 57.58 57.36 57.14 56.78 56.78 56.95 56.98 57.10 57.82 58.03 58.39 58.48 57.88 58.49 56.15 62.42 61.53 63.56 64.44 59.46 56.25 55.05 55.55 53.41 53.31 54.80 52.45 49.51 49.35 51.65 51.86 50.97 52.53 53.16 53.78 53.97 54.17 55.99 59.34 64.39 70.53 72.99
57.42 57.59 57.77 57.19 57.15 57.13 56.65 56.61 56.73 56.89 56.86 56.98 57.27 58.00 58.26 58.58 55.76 53.20 62.88 62.98 64.30 64.42 58.35 56.95 55.97 54.43 51.44 52.81 53.00 52.58 49.51 51.72 51.78 52.65 53.35 52.77 52.99 54.67 53.15 52.70 56.15 56.85 57.62 65.75 70.64
56.66 57.08 56.99 56.88 56.62 56.58 56.40 56.38 56.57 56.70 56.55 56.44 56.77 58.03 58.14 59.52 47.08 58.86 63.07 65.60 66.47 61.24 56.48 54.18 53.44 50.98 49.84 49.24 52.66 49.83 52.65 52.43 52.25 53.67 53.21 52.48 53.53 52.82 53.89 54.74 57.93 58.11 58.49 58.47 67.50
55.78 56.27 56.32 56.33 56.21 56.13 55.90 55.74 55.95 56.07 55.89 55.69 56.36 58.09 58.54 53.75 51.68 62.20 66.18 65.63 58.70 56.37 53.40 53.01 51.65 51.23 48.93 49.75 50.70 50.44 50.78 52.11 53.33 53.37 52.56 52.91 51.86 52.37 53.46 56.11 57.85 57.85 58.29 59.33 60.54
55.39 55.77 55.75 55.71 55.23 55.23 55.01 55.75 55.54 55.22 55.31 55.54 56.19 58.07 56.05 48.74 54.93 62.23 63.39 59.35 57.15 55.14 54.12 55.24 52.85 53.06 50.19 49.61 49.12 50.69 50.88 50.69 51.74 52.10 52.51 50.96 51.63 52.85 54.14 56.34 56.73 57.23 57.44 61.04 66.26
55.57 55.70 55.56 55.06 54.75 54.88 55.61 55.46 55.07 55.05 55.27 55.86 56.97 58.44 53.37 51.72 58.88 62.17 61.70 59.14 56.95 56.80 54.80 55.80 53.93 51.40 51.79 49.67 52.22 51.42 49.24 51.01 51.88 52.28 51.52 52.70 49.88 51.00 54.78 55.73 55.73 56.71 57.34 57.72 64.70
55.58 55.27 54.81 54.51 54.43 54.59 54.90 54.69 56.28 56.96 55.73 56.43 58.31 58.17 50.63 57.06 58.89 58.64 59.62 57.25 57.74 57.54 55.29 55.84 54.37 52.68 52.41 53.47 50.99 49.11 49.77 46.60 50.68 50.93 51.33 51.29 47.04 52.35 54.97 54.70 54.70 56.16 56.76 57.05 58.24
55.52 55.11 54.78 54.79 54.51 54.55 54.24 54.44 58.35 57.27 57.57 58.53 58.70 55.83 51.48 57.04 54.73 57.12 60.11 55.64 56.11 56.66 55.39 54.69 54.09 52.22 52.43 49.19 48.18 49.06 45.15 46.35 47.50 50.86 50.41 50.21 48.24 52.29 54.87 54.38 54.49 55.93 56.78 56.68 57.72
55.40 54.62 54.32 54.54 54.46 54.09 53.81 54.44 58.93 59.12 59.22 59.58 58.41 53.37 55.34 52.70 57.37 57.33 58.20 57.55 54.34 53.98 53.32 53.04 51.98 49.66 50.13 48.30 43.36 45.22 45.61 45.89 45.80 48.79 49.51 49.05 48.89 51.48 53.72 53.67 54.18 55.07 55.57 56.65 58.60
55.42 54.44 54.05 54.07 54.38 54.05 55.10 58.97 56.38 55.45 56.37 52.03 51.77 51.46 52.72 55.50 57.44 55.99 57.26 56.38 55.50 54.16 50.11 52.10 48.33 45.99 48.20 49.35 48.94 46.95 45.70 45.16 47.47 49.19 47.67 47.98 48.42 50.38 52.85 53.58 53.72 54.53 56.15 58.39 60.60
54.75 54.42 54.11 53.70 53.89 53.23 57.58 53.52 52.76 53.39 48.86 52.83 52.05 52.39 53.82 54.75 50.54 53.98 57.89 52.03 52.17 48.98 51.44 49.13 46.11 49.65 49.66 48.88 47.91 47.33 45.99 45.69 46.91 48.68 48.23 48.51 48.60 51.06 52.48 52.95 55.20 56.49 57.74 59.19 61.03
53.95 53.68 53.56 53.35 53.64 56.50 55.70 53.45 56.85 55.18 49.94 50.29 51.47 51.15 51.96 53.48 50.03 50.90 55.48 54.09 50.10 49.16 49.29 47.28 48.21 50.12 48.76 47.69 46.63 47.18 45.46 45.53 45.38 48.32 49.63 48.50 47.40 49.24 52.07 55.15 56.28 57.63 59.11 60.42 61.41
53.60 53.14 52.82 52.26 54.78 56.75 55.32 57.31 57.56 55.71 47.49 46.69 49.02 50.88 52.49 53.09 49.59 53.98 54.69 53.43 52.40 48.96 49.94 49.35 51.07 48.05 47.71 46.72 47.93 44.94 48.13 47.23 46.69 45.95 42.93 49.09 41.55 48.51 51.23 53.08 55.05 56.66 58.81 60.61 62.37
53.15 53.02 52.49 51.45 56.74 55.34 56.00 57.77 56.84 54.22 38.95 47.31 48.69 54.49 52.51 50.23 50.74 51.23 54.29 52.89 49.22 49.80 50.43 47.78 48.04 47.81 46.78 47.53 49.10 46.50 48.98 48.13 47.83 46.63 46.40 46.29 43.78 48.09 50.67 50.38 52.92 56.51 59.00 60.96 62.74
52.65 52.38 51.51 55.57 58.33 57.41 57.74 57.14 55.43 45.41 37.09 44.22 47.86 47.38 48.34 49.93 49.50 51.13 50.74 53.65 52.71 50.57 50.41 49.57 50.86 49.12 48.62 48.99 49.51 49.74 48.17 48.24 48.24 46.74 41.51 45.34 44.63 45.20 48.23 51.93 53.37 56.77 58.61 59.97 61.46
51.80 51.49 52.12 56.78 54.03 57.43 57.40 55.25 45.13 40.58 45.72 42.16 43.21 46.47 46.17 45.78 47.45 48.01 46.58 47.68 46.60 44.15 44.91 47.85 47.20 47.90 47.95 47.20 49.32 48.98 46.97 41.16 39.68 39.75 39.13 46.89 44.56 47.43 51.66 53.71 54.88 55.81 57.45 58.97 60.02
49.99 49.55 53.72 56.63 57.99 57.02 56.17 49.83 39.26 41.36 41.70 44.72 44.88 45.65 42.91 45.67 45.78 46.65 45.34 45.12 46.74 46.66 46.10 43.77 40.12 44.93 46.28 45.96 46.22 47.36 47.28 41.98 36.29 38.35 40.99 45.98 41.39 47.76 52.97 55.32 56.55 56.83 57.08 57.11 57.42
48.86 57.95 59.53 57.27 57.54 56.13 52.30 45.12 41.83 41.73 43.21 42.83 45.06 42.46 42.11 44.33 44.97 45.49 45.02 44.04 45.00 47.51 42.78 43.00 41.79 44.59 44.85 46.55 46.10 45.62 42.68 46.48 43.27 44.58 41.32 44.42 47.44 50.38 52.73 52.76 53.89 55.09 53.85 54.22 55.34
52.27 55.03 55.81 57.53 57.96 55.80 50.48 41.18 43.33 44.79 44.83 44.73 40.17 42.25 39.91 42.18 42.36 43.43 43.75 45.57 43.95 46.54 49.65 44.67 39.91 43.30 44.52 45.48 46.39 44.47 46.70 40.07 42.08 33.56 34.27 40.66 42.45 44.77 49.25 50.29 51.36 51.51 52.06 53.06 53.94
53.56 50.93 55.25 57.46 57.52 53.12 45.17 43.70 43.94 45.80 46.04 43.17 41.92 41.37 41.79 40.58 41.57 41.83 42.34 45.02 45.52 45.84 47.89 46.84 44.39 42.87 44.64 43.82 42.97 44.22 42.68 43.31 43.27 41.08 35.07 34.43 39.28 50.65 48.43 49.63 49.96 50.11 50.35 52.22 53.72
52.53 47.69 55.66 57.21 49.19 49.35 44.68 43.99 42.56 45.02 46.75 44.76 44.78 43.29 41.36 41.93 41.08 40.78 40.54 42.98 45.65 45.69 42.82 46.80 44.42 40.84 42.36 45.44 45.72 45.60 44.66 44.87 39.34 37.41 40.88 39.81 38.65 50.29 48.20 47.55 48.26 48.45 49.62 51.39 52.37
49.05 50.13 55.70 54.71 43.94 44.13 45.11 43.67 44.76 43.87 43.83 43.23 42.34 43.59 43.99 41.36 38.50 40.33 41.21 44.23 45.18 44.61 43.86 45.90 41.51 37.63 38.49 41.15 43.06 41.61 43.87 43.74 43.88 44.10 39.29 34.89 38.95 46.21 46.52 46.74 48.09 48.14 49.54 50.45 50.77
49.54 45.94 50.26 50.77 49.66 44.62 42.40 42.40 41.80 45.16 43.29 43.58 42.93 43.74 42.41 41.19 42.81 40.12 40.55 43.05 44.82 44.82 43.54 44.33 41.96 39.04 35.68 37.32 40.49 37.74 39.47 41.42 41.52 37.67 38.75 38.84 39.45 43.70 44.74 45.17 47.17 48.72 49.47 50.12 50.73
50.66 46.59 46.38 44.28 45.49 44.57 44.19 42.16 39.94 40.27 44.01 44.44 42.53 41.69 40.99 38.89 40.49 40.19 41.69 42.85 44.37 43.88 44.71 44.12 38.37 39.88 40.31 39.28 39.24 38.98 38.56 39.32 38.48 39.74 36.55 39.18 38.82 41.58 43.77 45.46 47.01 47.99 48.38 48.73 49.15
47.37 46.84 48.33 47.55 44.11 43.37 40.55 41.65 39.60 40.29 41.28 40.88 40.76 41.07 41.83 39.80 40.52 38.68 40.93 41.93 41.33 44.33 43.32 44.20 38.35 39.95 37.42 39.01 38.67 36.87 39.18 39.67 39.57 39.49 39.30 39.22 38.46 44.71 46.23 47.02 46.46 47.13 47.56 47.89 48.66
51.16 50.75 47.57 42.34 43.11 42.56 43.93 41.46 40.16 41.70 42.98 42.87 41.53 41.00 40.48 41.93 43.77 45.04 45.37 44.90 44.39 42.56 42.37 42.31 40.10 37.61 33.87 37.23 37.40 33.73 38.27 39.17 40.02 41.08 39.44 36.20 41.26 45.31 44.18 45.30 46.41 47.41 48.04 47.85 48.43

GFSSW_sfc_wetblb_279.txt.gz
Wetbulb
58.26 58.35 58.50 58.43 58.25 58.03 57.72 57.66 57.64 57.79 57.91 58.02 58.66 59.07 59.21 58.93 57.89 60.12 56.42 62.01 63.16 63.96 63.02 59.03 58.77 59.37 58.70 57.19 57.80 57.06 51.07 49.57 50.59 50.92 52.06 55.29 53.63 57.01 58.33 57.05 59.00 60.13 63.58 70.44 74.71
57.26 57.42 57.72 57.90 57.94 57.78 57.19 57.33 57.33 57.64 57.75 57.70 58.13 58.27 58.92 58.86 59.10 57.32 64.86 64.96 65.27 66.60 58.92 56.64 55.44 56.64 54.84 54.66 55.66 53.69 50.45 50.45 54.10 54.19 52.86 54.21 54.19 55.13 54.57 56.05 57.33 59.44 65.96 69.61 73.16
56.69 56.81 57.16 56.89 57.10 57.39 56.67 56.61 56.96 57.27 57.51 57.58 57.52 57.67 58.66 58.88 57.27 57.30 64.84 65.36 64.60 65.48 60.19 58.63 57.43 56.25 53.31 54.57 53.92 54.19 50.64 53.64 53.74 54.26 54.45 53.97 54.08 55.74 54.43 53.46 57.25 58.50 60.55 65.96 70.65
56.49 56.69 56.67 56.51 56.43 56.14 55.96 55.98 56.32 57.00 57.26 57.08 57.06 57.45 58.71 59.91 51.30 61.98 64.22 65.05 65.18 61.75 60.27 57.04 55.67 53.42 52.31 51.61 54.06 51.06 53.41 53.99 54.31 54.36 53.76 53.19 55.27 54.00 54.70 55.61 58.27 60.03 60.23 60.71 67.83
56.60 56.45 56.58 56.00 55.73 55.75 55.69 55.63 55.96 56.28 56.43 56.47 56.67 57.15 59.40 56.55 55.58 64.16 65.15 64.91 59.73 59.47 56.87 55.23 53.23 53.19 50.80 52.14 52.99 51.33 52.69 53.96 54.52 54.44 54.39 54.87 53.48 53.34 54.09 56.66 58.06 58.76 59.38 60.52 62.14
56.45 56.63 56.24 55.47 55.28 55.21 55.23 55.17 56.01 55.79 55.58 56.04 56.34 57.08 56.60 51.67 57.88 63.80 61.76 59.91 58.05 57.77 55.21 55.36 53.65 54.75 52.83 52.09 51.37 53.20 52.71 52.63 53.27 53.24 53.98 52.11 52.08 53.02 54.25 56.83 56.81 57.53 58.63 60.40 63.19
56.21 56.13 56.11 55.75 55.55 54.95 55.18 55.65 55.37 56.32 56.13 56.24 56.87 59.38 55.84 54.14 59.84 61.25 61.44 58.99 58.43 56.69 54.48 55.92 56.98 53.81 53.44 51.08 53.80 52.47 49.79 51.98 52.01 52.92 52.61 53.75 50.68 50.91 55.24 56.81 56.04 56.88 58.54 59.76 62.48
56.03 55.79 55.69 55.52 55.69 55.43 55.45 55.22 56.00 57.40 56.74 56.85 57.68 59.28 54.43 59.13 60.16 59.21 60.29 59.33 59.25 58.44 58.02 58.32 57.51 54.45 52.96 54.74 52.55 50.49 50.84 47.68 52.27 52.96 52.99 52.57 48.19 53.11 55.51 55.52 55.39 56.14 57.62 58.63 59.95
55.95 55.38 55.13 55.30 55.54 55.16 55.03 54.87 58.70 56.86 56.81 57.51 59.51 59.33 54.49 57.68 55.94 58.16 60.23 55.91 56.66 57.62 58.07 56.58 56.01 52.98 52.78 49.95 49.31 50.18 45.87 48.03 49.68 52.72 52.01 51.01 49.29 53.08 55.83 55.57 55.50 56.18 57.06 58.07 59.10
55.83 55.01 54.71 54.85 55.42 55.19 54.84 54.83 58.59 58.10 60.33 62.02 60.58 55.73 57.38 54.47 58.53 57.22 59.21 58.81 55.75 56.05 54.40 53.59 52.01 49.97 50.32 49.51 44.04 46.93 47.82 48.76 48.81 51.47 51.17 50.31 49.97 53.05 54.93 55.27 55.13 55.83 56.65 57.78 58.40
55.74 54.79 54.46 54.36 54.66 54.56 54.33 60.68 58.00 58.72 58.14 52.98 53.31 53.15 54.00 56.44 59.39 57.41 57.01 57.31 56.13 54.16 49.47 52.62 47.89 46.60 49.10 50.84 50.68 49.93 48.50 48.41 50.34 51.69 49.54 49.89 50.22 51.93 53.89 54.24 54.52 55.23 56.43 57.23 59.78
55.25 54.79 54.46 54.07 54.09 54.66 56.83 55.68 54.65 55.77 51.45 54.57 53.92 54.51 54.99 55.88 52.43 55.05 58.52 52.98 52.61 49.67 51.68 51.04 47.88 51.37 52.13 51.19 49.91 49.18 47.57 47.78 49.80 51.27 50.27 49.73 49.11 51.65 53.17 53.78 54.65 55.20 56.44 58.33 60.83
54.46 54.09 53.93 53.54 53.54 56.69 58.23 56.77 59.03 57.95 52.51 52.40 53.36 52.92 53.78 55.20 51.95 52.75 56.28 54.78 51.42 49.98 50.39 48.89 51.15 52.78 50.68 49.65 48.09 48.66 47.73 47.83 47.57 49.90 50.27 48.97 47.94 50.64 53.13 54.38 56.16 57.82 59.61 60.71 61.81
53.91 53.56 53.27 52.62 54.57 59.43 57.78 59.66 59.28 58.86 49.64 48.96 50.86 52.85 54.06 54.38 51.56 55.20 56.31 54.48 52.71 49.80 50.61 50.61 52.84 50.85 49.34 48.30 49.43 46.25 50.11 48.83 47.75 47.16 44.30 50.65 42.55 49.28 51.88 52.72 55.34 57.28 58.68 60.24 62.06
53.54 53.37 52.75 51.32 59.14 57.49 57.95 60.38 58.85 57.51 42.57 49.37 50.27 56.12 54.38 52.26 52.52 53.48 56.12 54.05 50.57 51.28 51.78 49.51 50.40 50.10 49.11 48.96 50.34 47.71 51.09 49.64 48.60 47.22 47.54 47.56 45.14 49.19 51.82 51.44 54.24 57.19 59.50 61.13 63.25
53.29 52.88 52.34 58.03 60.61 58.98 59.63 60.34 58.07 48.10 40.70 47.00 49.92 49.29 50.29 50.96 51.20 53.12 52.80 54.78 54.56 51.01 51.74 51.43 54.23 52.38 50.87 51.59 51.20 51.43 49.70 49.52 49.40 47.93 42.60 46.90 46.47 46.82 49.81 51.71 55.31 58.51 59.77 60.76 61.90
52.73 52.09 52.16 58.72 56.13 58.26 59.10 57.49 47.81 43.89 48.42 45.42 45.73 48.46 48.64 47.69 49.14 50.00 49.42 49.94 48.45 45.92 46.25 49.90 50.02 51.77 50.67 48.73 51.10 49.80 47.92 42.01 40.86 41.27 40.78 48.33 46.19 48.06 54.46 56.26 57.47 58.16 59.36 60.15 60.87
50.81 50.20 57.14 59.65 58.99 58.77 57.32 52.60 43.35 45.52 44.61 47.45 46.93 47.45 45.28 47.53 48.46 48.25 48.64 47.29 49.89 48.71 47.09 44.82 43.11 49.39 50.82 48.64 47.39 48.18 47.77 42.50 36.55 38.27 42.41 48.02 43.67 47.64 56.39 58.33 59.29 59.73 59.12 58.83 60.27
49.33 60.11 60.33 58.76 58.32 59.14 54.03 47.43 45.61 45.21 45.81 45.16 46.42 44.54 45.47 46.45 46.34 47.56 47.82 47.22 48.25 49.46 45.23 45.19 43.62 49.91 48.20 48.89 49.04 46.60 44.12 48.88 43.96 46.14 42.57 45.78 49.68 53.32 55.80 55.99 56.94 57.41 57.03 56.72 57.57
54.25 57.47 59.83 58.29 59.95 58.07 52.14 42.57 46.28 47.29 46.98 46.68 43.02 44.73 42.83 44.91 44.58 45.89 45.63 48.33 46.65 48.65 51.20 48.78 42.63 47.85 47.52 48.19 49.17 47.78 49.60 43.26 43.80 35.09 33.92 41.46 41.74 43.08 49.92 52.29 55.11 54.83 55.23 55.66 56.47
54.82 53.63 57.37 58.81 60.17 54.94 48.03 47.56 46.36 48.28 47.94 45.36 44.49 43.77 44.71 43.79 44.13 44.12 44.31 47.33 47.87 47.65 50.23 48.96 46.81 45.58 47.71 45.79 45.37 45.94 44.88 46.58 45.95 43.32 37.92 36.58 40.57 50.26 50.01 49.17 50.53 53.33 53.48 54.10 55.28
55.85 50.20 56.86 58.92 51.89 52.52 48.37 46.56 43.03 46.97 48.80 47.09 46.75 45.81 44.43 44.70 43.98 44.18 43.53 46.23 47.67 47.94 44.65 48.62 46.66 41.93 44.38 49.22 50.52 48.50 46.76 45.41 40.11 40.20 43.15 42.26 41.77 52.33 51.64 50.63 49.79 51.12 52.23 52.94 53.33
51.89 53.10 58.39 56.67 47.62 48.69 48.40 46.32 46.81 46.08 46.35 45.83 44.95 46.10 47.01 44.59 41.12 44.03 44.20 47.22 46.55 46.43 45.59 47.54 44.17 39.01 41.54 46.23 48.10 44.87 46.99 47.31 46.05 44.61 40.92 37.87 40.45 49.76 49.80 49.75 50.68 50.97 51.47 51.66 52.75
52.41 49.09 53.20 55.45 52.77 48.18 46.15 46.18 44.91 47.59 46.25 46.27 46.13 46.34 45.51 44.37 46.63 43.04 44.07 45.91 46.25 46.29 44.98 46.51 43.40 41.32 37.56 37.42 42.68 40.90 42.27 44.61 44.39 38.81 40.99 40.94 42.93 45.08 46.94 48.02 48.89 50.38 51.46 51.54 51.86
54.32 50.74 49.43 48.07 49.42 47.84 47.74 46.44 43.74 43.23 46.77 47.04 45.79 44.96 44.39 42.08 43.89 43.57 45.34 45.32 46.90 48.08 45.95 45.95 39.81 42.45 42.60 43.45 42.41 41.59 41.37 42.49 41.26 42.46 39.14 42.24 40.37 44.66 46.99 48.68 48.37 49.96 50.20 50.22 50.63
49.27 48.83 53.17 49.11 47.85 47.05 43.38 46.19 43.51 44.15 44.17 44.25 43.33 45.59 44.88 42.78 43.83 42.11 44.09 44.52 43.05 46.72 45.57 46.72 40.46 42.22 39.06 42.81 42.13 39.40 41.42 42.04 41.79 41.57 41.47 42.04 41.78 46.89 47.91 48.37 47.59 48.18 48.85 48.77 49.86
54.50 54.06 49.97 46.68 47.35 46.24 47.81 45.50 44.13 44.79 46.47 46.18 45.29 44.22 43.49 45.21 47.29 47.43 47.82 47.58 46.75 44.96 43.25 43.01 41.23 39.51 36.18 40.62 40.26 36.55 40.84 41.34 42.09 43.12 42.31 38.79 42.69 47.31 45.70 46.36 47.49 48.63 49.36 49.28 49.88

GFSSW_sfc_wetblb_285.txt.gz
Wetbulb
58.01 57.96 58.40 58.41 57.79 57.13 56.92 56.87 56.86 57.08 57.86 58.36 58.68 58.93 58.97 59.24 58.51 55.93 52.03 55.53 58.57 64.62 63.06 52.96 53.26 52.60 53.56 51.47 51.76 50.10 40.90 38.56 42.28 43.84 45.61 48.79 47.26 50.80 53.11 53.28 56.46 66.61 65.58 66.81 67.38
57.79 57.84 57.99 57.70 56.68 56.49 56.38 56.38 56.51 56.60 56.87 58.01 58.40 58.70 58.66 58.85 54.69 51.70 59.37 66.73 66.86 66.88 53.21 51.46 49.78 51.70 48.06 48.50 48.43 45.44 40.19 42.60 47.85 47.90 46.41 48.14 48.59 50.03 50.82 51.07 52.17 64.43 64.28 65.18 66.22
57.59 58.01 57.73 56.81 57.12 56.25 56.00 55.89 56.10 56.29 56.47 57.64 57.97 58.18 58.23 57.36 52.14 54.06 66.79 67.95 67.44 65.43 52.67 51.59 50.93 50.42 45.40 46.79 47.09 45.83 42.87 47.41 49.51 49.71 49.91 48.80 49.19 50.04 49.63 47.20 50.52 60.76 62.47 63.56 64.06
57.22 57.23 57.19 57.10 56.86 56.20 55.83 55.89 56.07 56.23 56.40 57.19 57.29 57.53 57.81 55.07 45.49 55.44 67.08 67.27 67.36 58.02 53.23 49.83 49.30 46.04 43.96 43.66 47.79 42.93 47.16 48.17 49.81 50.64 48.11 47.95 49.55 49.33 48.67 49.26 52.98 65.68 65.61 64.22 63.31
57.09 56.99 56.76 56.84 56.70 56.81 56.79 56.33 56.11 56.41 56.62 56.73 56.92 57.27 55.16 51.17 51.68 61.20 66.47 65.27 57.34 52.34 50.31 48.58 48.91 47.02 43.57 45.92 47.21 44.23 46.71 48.40 49.29 48.69 47.07 49.55 48.26 48.49 48.71 52.33 53.52 54.06 67.49 66.09 66.61
56.85 56.83 56.77 56.81 56.81 56.81 56.74 56.70 56.49 56.44 56.50 56.39 56.88 56.53 51.78 44.44 56.95 60.64 58.45 55.01 52.86 49.45 50.74 50.26 50.75 50.32 46.70 45.47 43.63 47.02 46.80 47.19 47.46 47.13 46.79 46.67 47.83 48.01 49.97 52.19 51.95 52.32 52.09 54.86 62.41
56.28 56.32 56.42 56.30 56.65 56.71 56.62 56.36 56.07 56.69 58.46 58.44 57.22 56.22 52.04 49.13 57.91 58.33 57.69 55.70 54.52 53.91 50.82 53.27 52.68 47.18 47.18 45.48 48.15 47.45 44.07 46.30 47.08 46.58 45.75 47.52 45.12 46.20 50.17 51.43 50.11 51.01 51.88 52.56 55.19
55.91 55.57 55.71 55.96 56.38 56.38 56.49 56.26 56.28 59.50 57.73 57.39 57.52 54.74 49.21 58.02 56.11 55.63 55.03 56.32 56.67 55.38 53.81 53.67 52.67 49.57 45.46 48.30 47.88 44.18 42.77 38.87 45.34 47.35 47.79 46.00 41.06 48.05 50.33 49.87 49.83 51.11 51.86 53.34 59.20
55.48 55.06 55.24 55.55 56.02 56.10 55.61 55.55 56.42 60.41 57.15 57.42 54.28 52.68 51.26 59.33 55.40 56.62 54.41 54.54 55.93 54.99 53.96 56.08 51.76 47.91 48.74 43.31 39.97 40.58 37.51 40.01 44.13 48.08 47.50 46.07 41.99 48.06 50.62 49.24 48.93 49.99 51.58 52.53 59.69
55.10 54.81 54.75 55.12 55.45 55.24 54.47 55.04 58.08 57.10 56.95 57.75 57.77 52.34 55.97 53.22 57.47 58.24 55.30 56.30 53.78 53.34 51.59 49.79 46.71 42.70 42.17 39.41 34.08 37.58 38.40 40.58 42.85 47.34 46.67 44.55 43.49 47.85 49.83 49.45 49.73 50.47 51.01 55.15 60.24
54.98 54.59 54.53 54.61 54.94 54.30 51.89 53.11 50.93 53.73 53.82 53.95 54.06 55.36 53.86 55.83 57.69 55.69 55.78 55.22 54.50 50.40 44.19 47.63 41.62 38.58 41.70 43.12 44.31 43.98 42.65 42.20 45.68 48.86 46.61 44.34 45.15 46.86 48.46 47.02 48.64 49.94 50.43 58.34 59.53
54.37 54.51 54.51 54.20 54.20 53.73 51.26 51.60 51.56 51.60 46.75 54.42 54.95 53.09 55.53 55.00 51.71 53.78 55.27 50.22 49.62 45.02 47.08 44.25 40.52 45.79 48.14 47.44 45.28 44.18 42.34 42.57 46.18 48.69 45.69 45.02 44.17 46.85 47.87 47.30 48.95 50.24 50.26 57.96 57.98
53.59 53.73 54.16 53.94 53.22 54.20 54.05 54.26 55.60 54.44 45.67 52.62 54.10 52.12 51.27 52.81 51.98 52.20 53.70 50.85 47.48 45.12 45.40 42.30 45.80 50.23 48.33 46.77 46.23 45.26 42.96 43.40 43.37 46.83 46.28 44.61 42.02 44.47 48.03 48.82 48.52 51.89 54.39 58.07 58.80
53.28 53.42 53.73 53.04 53.33 54.56 52.88 54.71 55.26 55.09 41.82 49.22 49.64 51.01 52.45 52.31 50.53 55.58 54.99 51.82 48.08 45.18 46.70 45.42 48.87 48.57 47.39 46.27 46.79 41.43 47.60 47.20 45.54 42.49 37.85 43.38 34.95 41.72 44.69 46.20 47.76 52.45 55.29 56.70 60.62
53.03 53.51 53.30 52.32 49.71 52.36 56.59 53.08 55.11 53.07 36.41 49.60 49.37 52.57 51.62 48.96 51.03 52.14 55.20 52.16 46.96 47.21 46.40 44.51 46.42 46.31 46.09 46.99 48.83 45.45 48.28 46.25 45.57 41.80 38.34 41.75 35.34 39.56 44.54 45.03 45.72 51.33 53.63 56.88 61.37
52.85 53.09 52.75 54.28 51.60 55.63 58.39 53.69 53.75 42.65 37.92 46.72 50.03 47.92 46.72 48.99 50.67 52.05 52.08 52.77 51.52 46.92 47.13 46.21 50.34 48.54 47.61 49.36 49.46 50.69 48.17 46.59 42.95 39.34 34.19 38.61 38.19 38.81 42.23 44.76 48.68 51.63 57.03 59.69 60.21
52.42 52.36 50.65 54.65 52.07 57.19 55.20 51.60 41.35 38.41 49.83 45.87 46.49 47.84 45.84 45.79 47.80 48.78 47.78 45.09 41.95 39.67 39.67 45.52 45.94 49.23 51.15 46.72 47.93 47.56 41.61 36.81 34.76 31.56 31.83 41.25 38.59 40.53 46.89 48.28 51.47 53.50 56.49 57.99 59.19
51.22 50.77 52.71 56.74 57.21 56.65 52.22 45.77 37.06 46.50 44.86 48.15 46.59 46.05 43.67 46.32 46.30 47.76 46.03 42.45 46.24 45.03 40.82 38.56 37.37 45.57 48.89 47.56 43.02 44.69 40.33 36.53 29.13 30.73 34.66 41.83 39.26 45.33 50.62 49.63 52.24 50.20 55.41 55.40 54.11
50.12 53.29 55.73 58.33 58.70 55.35 47.75 40.13 41.67 44.70 46.19 44.60 45.25 43.74 44.76 47.10 46.33 45.52 43.94 43.39 46.21 45.76 38.64 37.75 39.19 47.74 48.60 49.41 48.10 44.89 39.25 43.86 37.01 37.83 33.55 37.04 43.30 50.43 50.73 49.32 49.70 49.51 49.73 51.96 53.69
48.14 51.43 55.81 57.69 57.27 53.22 45.83 43.59 46.23 47.95 47.37 46.07 40.77 44.90 40.97 42.96 42.50 42.32 42.41 46.29 46.38 47.34 45.92 41.99 35.27 44.74 46.44 49.62 47.75 42.73 46.77 37.09 37.45 29.63 26.65 34.32 40.77 41.80 47.24 46.47 48.82 48.35 49.18 49.99 50.34
49.23 50.93 54.59 56.33 57.01 50.11 42.93 45.39 48.31 49.19 48.41 45.17 42.98 42.18 42.63 42.09 42.98 41.60 42.85 45.68 46.43 45.05 45.17 42.52 38.22 39.24 44.69 42.43 40.47 43.40 41.02 41.58 39.52 39.07 33.14 29.14 37.58 48.25 47.53 48.42 48.46 49.24 49.86 50.17 50.23
48.92 47.10 55.41 55.82 46.31 48.31 43.51 47.46 46.06 47.80 49.51 48.59 47.29 45.39 43.68 43.81 41.94 41.73 41.92 44.99 47.10 45.98 40.97 42.40 38.07 33.51 38.18 44.51 48.39 46.28 42.43 42.19 35.77 34.36 39.09 35.39 37.10 49.43 49.54 49.24 48.98 48.96 50.89 50.97 51.18
45.43 49.62 57.36 55.30 42.35 42.96 47.75 48.82 49.14 47.43 47.26 46.17 44.91 46.22 46.16 41.95 37.91 43.29 43.93 48.44 47.40 45.26 40.99 39.76 34.22 29.38 33.71 39.18 43.28 39.92 41.36 42.83 41.06 40.28 34.63 31.96 35.25 47.65 49.21 49.41 49.24 48.98 50.04 50.61 51.01
47.69 45.87 51.22 50.09 50.33 46.10 44.24 45.35 45.83 49.11 47.59 48.07 45.78 46.06 43.62 41.78 43.13 41.16 43.21 47.95 48.04 46.62 50.23 45.11 35.54 32.88 27.93 33.30 39.11 38.93 41.23 42.43 39.58 34.59 34.87 34.79 38.45 43.94 45.22 45.50 47.74 49.02 50.11 50.27 49.93
50.40 46.97 47.74 42.84 43.77 45.48 45.98 45.91 44.56 44.57 47.55 47.71 44.68 45.28 43.14 38.05 39.70 39.66 43.23 44.52 46.89 49.61 45.24 39.91 32.50 36.52 38.44 40.80 41.01 40.64 40.85 41.29 38.92 38.84 34.00 38.00 39.39 42.87 44.14 45.23 47.01 48.90 49.13 49.22 48.97
47.27 45.12 47.31 45.55 47.08 46.70 45.37 44.50 45.14 46.29 44.63 43.77 42.18 44.83 43.61 38.66 39.82 37.71 40.48 39.91 39.13 42.94 40.64 42.72 33.90 37.96 36.30 40.97 41.04 38.81 41.02 42.38 41.82 39.84 39.51 39.62 38.63 44.06 45.37 46.97 46.31 47.16 48.04 47.06 47.90
50.56 51.09 46.63 45.39 44.87 43.98 44.61 46.52 46.08 45.99 46.74 47.56 45.51 42.27 41.23 43.53 44.86 43.56 42.65 42.35 41.81 37.73 37.27 37.26 34.87 32.84 29.25 38.73 38.58 32.75 39.12 39.93 39.73 40.24 38.91 34.25 39.62 41.94 42.41 44.47 42.68 44.59 46.65 46.69 47.00

GFSSW_sfc_wetblb_291.txt.gz
Wetbulb
57.75 57.59 57.52 57.75 57.08 56.91 57.10 56.69 56.15 55.91 56.03 56.18 56.43 56.85 57.82 58.30 57.28 53.13 45.67 52.34 54.75 63.75 62.90 50.09 49.49 48.45 48.15 46.76 47.64 44.32 39.05 34.24 37.47 38.64 42.88 45.18 44.93 47.61 50.14 63.19 62.38 65.06 63.84 63.72 67.78
57.07 57.27 57.15 57.19 57.29 57.29 56.49 56.12 56.61 56.43 55.98 56.53 56.21 56.71 57.74 58.00 51.35 49.52 57.49 62.56 64.32 65.64 50.77 48.61 45.32 46.84 44.99 44.15 44.72 42.20 37.02 39.15 43.25 42.60 43.76 45.42 43.97 46.21 47.55 51.10 58.74 60.41 62.31 66.09 67.00
56.67 56.66 56.72 56.98 57.12 57.26 56.47 56.13 56.28 56.41 56.90 56.85 56.83 56.69 57.47 56.89 46.13 52.39 65.52 64.70 65.66 66.31 51.12 49.50 46.34 44.79 44.13 42.43 42.91 39.66 39.31 42.07 44.20 45.73 44.64 45.32 45.94 46.56 45.53 43.97 47.89 57.61 59.34 63.62 63.99
56.46 56.33 56.18 56.34 56.50 56.78 56.79 56.83 57.10 57.24 57.03 56.57 55.54 55.76 57.34 52.00 40.31 52.37 66.69 68.68 67.23 59.38 49.50 47.44 44.42 41.18 42.30 42.30 41.29 41.50 43.56 43.11 44.87 45.00 43.17 44.10 45.90 46.36 46.26 47.59 49.92 51.93 60.65 62.90 62.81
55.90 55.87 55.64 55.68 56.05 56.22 56.60 56.78 56.75 56.53 56.72 56.00 55.40 56.22 52.52 44.01 47.11 54.76 66.77 67.63 57.61 51.48 49.14 46.24 42.63 42.26 41.67 40.22 41.79 39.88 43.44 44.05 44.99 44.08 43.10 43.83 44.75 45.44 45.84 49.02 49.76 61.26 62.15 61.66 62.06
55.40 55.22 55.16 55.25 55.57 56.24 56.55 56.55 56.43 56.03 57.22 56.58 55.53 56.44 48.00 39.61 49.92 59.51 55.98 51.51 50.69 48.43 48.38 45.51 44.82 47.17 42.69 40.73 39.97 42.31 42.48 43.38 43.35 43.49 42.23 42.11 44.13 45.38 47.50 49.20 50.31 60.94 60.84 60.40 61.15
55.28 54.91 54.73 55.04 55.26 55.79 56.45 56.37 55.92 55.99 57.98 58.10 56.27 55.46 48.41 44.98 54.74 57.37 52.27 49.45 50.01 49.46 46.72 46.77 47.33 46.10 43.99 41.81 42.13 42.83 41.08 41.98 41.99 41.81 42.90 43.22 43.01 42.59 47.24 47.77 47.95 54.55 57.95 61.57 62.59
54.91 54.73 54.52 54.71 55.08 55.59 55.89 56.01 55.60 56.06 57.39 58.06 57.65 52.84 43.95 52.19 53.55 52.89 53.20 53.19 53.07 48.93 49.30 50.04 49.34 45.33 42.55 43.79 44.13 40.55 38.10 35.36 40.91 43.48 44.39 42.99 38.46 44.89 46.86 44.88 46.76 47.70 47.02 50.51 61.30
54.77 54.28 54.40 54.44 54.87 55.18 55.32 55.03 55.65 57.72 57.80 58.14 52.46 50.70 48.73 59.12 54.35 55.41 53.12 50.51 52.79 52.14 51.11 53.95 47.90 43.74 44.05 39.03 37.21 37.52 34.23 35.12 39.71 42.74 43.21 41.62 40.78 46.07 47.64 45.49 45.79 46.46 53.46 58.12 62.48
54.57 54.07 54.14 54.58 54.85 54.85 54.34 54.65 57.84 57.17 56.32 56.74 55.94 47.21 49.81 51.66 54.66 54.87 52.02 52.35 51.54 49.84 48.26 47.40 42.80 40.54 37.94 36.83 31.72 34.17 34.31 35.41 36.82 41.33 42.14 39.96 40.71 44.68 47.17 45.39 45.65 45.45 56.97 60.82 61.93
54.40 53.97 53.95 54.22 54.48 54.16 51.33 48.40 45.66 45.12 52.05 46.33 48.93 51.90 53.91 56.63 54.66 52.27 52.66 52.25 51.20 47.59 40.79 43.43 39.91 36.01 39.33 39.75 40.27 38.93 37.08 36.86 41.20 44.57 40.55 40.69 40.68 44.39 45.61 43.46 43.31 46.64 55.32 59.23 61.03
53.60 53.97 54.09 53.87 53.99 53.85 48.72 48.80 48.60 48.08 44.13 50.38 52.15 53.83 55.67 54.74 48.95 50.43 51.79 47.29 46.49 41.67 42.95 41.23 37.04 43.25 43.65 43.14 41.42 39.92 37.32 37.97 41.08 43.56 40.61 41.83 41.70 43.86 44.56 44.53 44.37 51.00 55.05 56.74 56.74
53.36 53.38 53.52 53.59 53.04 49.94 48.25 50.36 51.03 48.46 41.91 47.87 51.19 50.81 49.22 51.50 48.44 49.08 50.25 47.29 44.10 40.73 40.26 38.49 43.00 46.27 44.49 42.97 41.76 39.31 37.81 38.89 39.63 44.02 42.52 40.69 38.86 41.03 44.42 47.06 49.90 52.11 56.06 56.93 57.29
53.07 53.09 53.20 52.58 48.51 45.77 49.32 51.71 50.92 50.15 40.45 46.70 47.36 48.67 48.77 48.54 47.05 52.67 51.57 48.79 44.19 41.73 41.76 40.22 44.31 44.46 42.77 41.88 42.15 36.83 43.47 42.80 41.97 38.99 34.87 39.88 34.33 37.39 41.37 44.85 48.71 48.98 52.30 57.88 60.21
52.82 53.07 53.03 52.16 44.59 47.38 50.94 50.48 49.76 50.31 31.71 48.11 46.10 50.15 47.78 44.94 46.36 49.22 51.92 48.66 43.83 44.03 42.80 41.24 42.06 41.93 41.24 43.08 45.83 41.65 45.74 43.03 42.54 38.51 34.60 35.83 33.15 35.86 44.50 43.88 46.12 49.03 56.23 57.12 60.69
52.57 52.68 52.48 49.44 45.29 49.12 50.55 48.43 50.62 41.47 33.91 44.41 46.29 44.23 43.48 45.16 46.56 48.76 48.60 49.18 47.59 43.32 42.80 42.25 45.48 45.01 44.18 46.19 46.46 46.87 43.04 40.57 37.56 34.71 31.01 34.89 34.02 33.15 41.46 43.96 46.37 49.15 54.79 57.26 58.32
52.22 52.21 50.37 50.50 44.17 48.84 48.78 48.40 39.80 35.82 45.41 41.67 42.82 44.60 41.63 42.28 44.67 46.10 44.12 41.41 38.88 35.61 35.71 41.14 41.63 44.65 46.61 42.28 44.47 42.28 36.77 29.81 29.05 28.80 29.15 37.51 34.37 38.16 45.78 46.61 47.54 48.69 50.46 54.12 57.54
50.81 50.41 50.21 51.46 47.45 49.92 47.80 44.08 33.67 41.25 40.59 44.45 43.76 43.57 41.43 43.49 42.79 44.27 42.28 39.09 42.68 40.45 35.97 33.86 33.53 40.99 45.59 42.14 38.27 38.40 36.11 30.39 25.37 26.65 29.95 37.58 34.10 40.19 47.29 48.46 49.02 49.82 50.39 50.95 50.84
49.29 47.34 49.11 51.59 51.88 47.97 45.53 36.97 36.18 39.47 42.95 41.92 42.59 40.16 40.12 42.97 42.18 41.32 40.02 39.53 40.82 40.08 35.50 33.27 34.74 43.76 44.95 44.50 42.44 38.12 33.41 38.04 33.01 33.42 30.25 32.87 41.20 46.31 49.25 47.75 47.89 48.14 49.08 49.60 50.31
43.79 46.51 48.72 51.64 51.07 48.84 42.51 39.57 40.04 44.53 44.59 43.53 37.79 40.67 36.14 39.10 39.05 38.62 38.63 42.26 41.65 43.26 41.27 37.93 31.56 40.67 43.40 44.52 43.67 40.24 42.58 33.05 32.34 24.09 24.47 31.24 32.96 37.48 45.38 44.85 45.95 46.37 47.44 48.98 50.83
44.80 45.28 49.94 49.96 50.41 44.88 38.25 39.91 43.35 46.16 45.71 42.50 39.88 38.60 38.94 38.08 38.58 37.20 39.10 42.03 43.85 42.37 41.52 38.04 34.26 34.74 39.02 36.93 36.77 38.00 36.79 37.82 34.78 34.48 30.54 26.67 30.93 46.33 46.27 47.53 45.37 46.46 48.21 48.98 49.77
42.69 41.55 50.44 49.34 42.39 38.30 37.31 41.72 45.64 45.22 46.58 44.76 42.66 41.62 39.71 39.24 37.58 37.85 38.87 41.48 44.11 42.86 38.06 37.56 33.18 28.41 32.34 39.83 45.12 41.34 38.61 36.91 29.09 27.40 34.52 32.76 31.85 46.37 48.31 48.74 48.62 48.05 49.43 50.80 52.04
40.68 41.70 50.55 48.26 36.63 36.87 41.15 44.13 45.65 44.72 43.76 42.80 41.79 42.89 41.91 37.85 33.77 39.30 40.82 45.34 45.42 42.26 37.99 36.72 30.18 26.02 29.30 33.21 37.31 36.48 40.61 39.80 36.05 33.84 32.58 31.44 31.21 46.90 47.89 49.20 49.94 47.18 48.21 48.71 50.78
43.00 38.60 41.71 42.33 39.84 37.94 37.85 40.46 42.08 46.80 44.48 44.08 41.85 42.46 39.39 36.95 37.83 36.71 38.93 44.43 45.88 45.10 47.90 41.05 31.14 30.57 26.37 30.33 33.70 33.48 36.92 39.77 36.19 30.50 30.60 33.26 35.77 40.78 44.98 45.60 48.40 48.90 48.56 48.49 50.93
41.30 38.08 39.67 35.31 37.50 38.97 37.82 40.57 41.01 40.98 43.17 42.92 39.81 40.96 38.61 33.78 35.38 35.35 39.01 40.37 43.84 44.96 40.71 35.93 30.07 32.26 34.45 36.55 37.91 37.12 36.50 37.28 36.73 36.62 33.18 35.51 35.93 40.44 43.78 45.23 48.40 49.18 49.72 49.63 50.72
40.33 39.30 40.41 38.24 39.37 38.29 38.53 38.18 40.71 42.52 40.94 40.04 38.23 41.37 38.91 35.20 37.23 35.19 36.85 35.69 36.63 38.46 35.32 35.56 31.03 33.91 33.51 37.87 37.53 34.56 36.00 36.93 36.98 37.27 37.20 38.24 37.22 43.87 44.11 47.70 48.27 48.21 48.79 49.03 48.45
41.17 41.39 40.29 38.22 37.15 36.30 37.33 40.24 41.87 41.41 42.60 43.55 41.68 38.86 37.72 40.01 41.63 40.91 40.39 39.42 39.35 36.90 34.00 32.93 30.69 27.89 25.96 34.38 33.54 28.02 33.51 36.04 36.85 37.94 36.68 30.74 35.50 40.37 43.68 46.60 47.43 47.49 44.91 44.28 44.47